Roes Welcome - northern half: Past 24 Hour Conditions

 

Rankin Inlet Airport

12:00 PM CDT 22 July 2014
This table is a summary of hourly weather conditions for the past 24 hours.
Date / Time
(CDT)
Wind(knots) Conditions Visibility(km) Pressure(kPa) Air tempC) Relative humidity(%) Dew pointC)
22 July 2014
12:00 WNW 14 gust 21 Mainly Sunny 24 101.5 16 51 6
11:00 NW 11 gust 18 Mainly Sunny 24 101.5 15 55 6
10:00 NNW 15 gust 22 Mainly Sunny 24 101.5 14 56 6
9:00 NNW 16 Mainly Sunny 24 101.5 13 59 6
8:00 NNW 12 gust 18 Mainly Sunny 24 101.5 13 64 6
7:00 NW 10 Partly Cloudy 24 101.5 12 66 6
6:00 NNW 10 Cloudy 24 101.5 11 79 8
5:00 NNW 11 Cloudy 24 101.4 11 80 8
4:00 NNW 10 Cloudy 24 101.4 11 78 8
3:00 NNW 10 Cloudy 24 101.3 11 72 7
2:00 NNW 9 Cloudy 24 101.3 11 74 7
1:00 NNW 8 Cloudy 24 101.2 11 75 7
0:00 N 13 Cloudy 24 101.2 12 71 7
21 July 2014
23:00 NNW 11 Cloudy 24 101.1 13 68 7
22:00 NNW 12 Cloudy 24 101.1 13 67 7
21:00 N 13 Cloudy 24 101.0 14 61 6
20:00 NNW 13 Cloudy 24 101.0 14 60 7
19:00 N 17 Cloudy 24 100.9 14 59 7
18:00 NNW 16 gust 22 Cloudy 24 100.9 15 57 7
17:00 NNW 14 Cloudy 24 100.8 16 56 7
16:00 NNW 13 gust 18 Cloudy 24 100.8 15 58 7
15:00 NNW 14 Cloudy 24 100.7 15 58 7
14:00 NNW 15 Cloudy 24 100.7 15 59 7
13:00 NNE 10 Cloudy 24 100.6 15 62 8
12:00 NNE 12 Cloudy 24 100.6 15 64 8
 
Map of Arctic - Eastern Arctic marine weather areas Baker Lake Airport Chesterfield Inlet Airport Coral Harbour Airport Gjoa Haven Airport Kugaaruk Airport Rankin Inlet Airport Shepherd Bay Airport Whale Cove Airport Arctic Bay Brevoort Island Qikiqtarjuaq Airport Cape Dorset Airport Cape Dyer Cape Hooper Clyde Airport Grise Fiord Airport Hall Beach Airport Igloolik Airport Iqaluit Airport Longstaff Bluff Pangnirtung Airport Pond Inlet Airport Repulse Bay Airport Resolute Airport Resolution Island Rowley Island Airport Taloyoak Airport Wager Bay Akulivik Airport Ivujivik Airport Puvirnituq Airport Kangiqsujuaq Airport Kangirsuk Airport Quaqtaq Airport Tasiujaq Airport Cape Kakkiviak Cape Kiglapait Nain Airport Saglek Cape Mercy Kimmirut Airport Aupaluk Airport Salluit Airport Kangiqsualujjuaq Airport Fort Ross
Legend: buoyBuoy land stationLand Station